VE6CPK-13 Weather Reports


Display with metric or nautical units.
time (UTC)temp
F
wind
direction
speed
MPH
gust
MPH
rain 1hr
in
rain 24hr
in
rain mn
in
humidity
%
barometer
mb
20200926021950 53 78 0.0 8.0 0.00 0.00 0.00 48 993.5
20200926021448 53 78 0.0 8.0 0.00 0.00 0.00 48 993.5
20200926020952 53 78 0.0 8.0 0.00 0.00 0.00 47 993.4
20200926020447 54 78 0.0 8.0 0.00 0.00 0.00 46 993.3
20200926015951 54 78 0.0 8.0 0.00 0.00 0.00 46 993.3
20200926015447 54 78 0.0 8.0 0.00 0.00 0.00 46 993.2
20200926014949 55 121 0.0 8.0 0.00 0.00 0.00 46 993.2
20200926014450 55 132 0.0 8.0 0.00 0.00 0.00 45 993.1
20200926013948 55 238 0.0 8.0 0.00 0.00 0.00 44 993.0
20200926013447 55 189 0.0 8.0 0.00 0.00 0.00 44 992.9
20200926012948 56 227 1.0 8.0 0.00 0.00 0.00 43 992.8
20200926012451 56 206 0.0 8.0 0.00 0.00 0.00 43 992.7
20200926011951 56 190 1.0 8.0 0.00 0.00 0.00 42 992.7
20200926011447 57 215 0.0 8.0 0.00 0.00 0.00 41 992.6
20200926010948 57 224 1.0 8.0 0.00 0.00 0.00 41 992.6
20200926010450 57 219 0.0 8.0 0.00 0.00 0.00 41 992.5
20200926005947 57 194 1.0 8.0 0.00 0.00 0.00 41 992.5
20200926005447 57 202 1.0 8.0 0.00 0.00 0.00 41 992.4
20200926004947 57 217 1.0 8.0 0.00 0.00 0.00 43 992.3
20200926004452 57 199 0.0 8.0 0.00 0.00 0.00 45 992.3
20200926003948 57 208 1.0 8.0 0.00 0.00 0.00 44 992.1
20200926003450 57 168 0.0 8.0 0.00 0.00 0.00 46 992.1
20200926002948 57 165 0.0 8.0 0.00 0.00 0.00 45 992.1
20200926002451 56 159 0.0 8.0 0.00 0.00 0.00 45 992.2
20200926001947 56 156 1.0 8.0 0.00 0.00 0.00 46 992.2
20200926001447 56 155 0.0 8.0 0.00 0.00 0.00 47 992.1
20200926000951 55 155 0.0 8.0 0.00 0.00 0.00 47 992.1
20200926000447 55 154 0.0 8.0 0.00 0.00 0.00 47 992.3
20200925235949 55 154 0.0 8.0 0.00 0.00 0.00 47 992.3
20200925235451 55 153 0.0 8.0 0.00 0.00 0.00 50 992.3
20200925234948 55 153 0.0 8.0 0.00 0.00 0.00 49 992.2
20200925234454 55 153 0.0 8.0 0.00 0.00 0.00 49 992.2
20200925233949 55 144 0.0 8.0 0.00 0.00 0.00 48 992.2
20200925233449 55 144 0.0 8.0 0.00 0.00 0.00 48 992.3
20200925232947 55 144 0.0 8.0 0.00 0.00 0.00 48 992.2
20200925232447 55 144 0.0 8.0 0.00 0.00 0.00 48 992.2
20200925231947 55 144 0.0 8.0 0.00 0.00 0.00 48 992.4
20200925231447 55 144 0.0 8.0 0.00 0.00 0.00 48 992.4
20200925230947 55 144 0.0 8.0 0.00 0.00 0.00 49 992.5
20200925230447 55 144 0.0 8.0 0.00 0.00 0.00 49 992.4
20200925225951 55 144 0.0 8.0 0.00 0.00 0.00 50 992.5
20200925225449 55 144 1.0 8.0 0.00 0.00 0.00 48 992.5
20200925224947 55 172 0.0 8.0 0.00 0.00 0.00 47 992.6
20200925224447 55 172 0.0 8.0 0.00 0.00 0.00 47 992.6
20200925223947 55 172 0.0 8.0 0.00 0.00 0.00 47 992.7
20200925223447 56 171 0.0 8.0 0.00 0.00 0.00 47 992.7
20200925222947 56 172 0.0 8.0 0.00 0.00 0.00 45 992.8
20200925222449 56 172 0.0 8.0 0.00 0.00 0.00 44 992.8
20200925221947 55 172 0.0 8.0 0.00 0.00 0.00 45 992.9
20200925221451 55 172 0.0 8.0 0.00 0.00 0.00 46 992.9
20200925220947 55 172 0.0 8.0 0.00 0.00 0.00 45 993.0
20200925220450 55 172 0.0 8.0 0.00 0.00 0.00 45 993.0
20200925215951 55 172 0.0 8.0 0.00 0.00 0.00 45 993.0
20200925215449 55 172 0.0 8.0 0.00 0.00 0.00 45 993.1
20200925214947 55 172 0.0 8.0 0.00 0.00 0.00 45 993.0
20200925214450 55 172 0.0 8.0 0.00 0.00 0.00 45 993.0
20200925213947 55 172 0.0 8.0 0.00 0.00 0.00 45 993.0
20200925213448 55 172 0.0 8.0 0.00 0.00 0.00 45 993.0
20200925212950 55 172 0.0 8.0 0.00 0.00 0.00 45 993.1
20200925212447 55 172 0.0 8.0 0.00 0.00 0.00 46 993.0
20200925211947 55 172 0.0 8.0 0.00 0.00 0.00 46 993.0
20200925211449 55 172 0.0 8.0 0.00 0.00 0.00 45 993.1
20200925210950 55 174 0.0 8.0 0.00 0.00 0.00 46 993.1
20200925210448 55 174 0.0 8.0 0.00 0.00 0.00 46 993.1
20200925205948 55 174 0.0 8.0 0.00 0.00 0.00 46 993.2
20200925205447 55 174 0.0 8.0 0.00 0.00 0.00 46 993.3
20200925204947 55 174 0.0 8.0 0.00 0.00 0.00 46 993.3
20200925204447 55 174 0.0 8.0 0.00 0.00 0.00 45 993.3
20200925203947 56 174 0.0 8.0 0.00 0.00 0.00 46 993.4
20200925203447 56 174 0.0 8.0 0.00 0.00 0.00 47 993.5
20200925202948 56 174 0.0 8.0 0.00 0.00 0.00 44 993.5
20200925202449 56 174 0.0 8.0 0.00 0.00 0.00 45 993.7
20200925201947 56 174 0.0 8.0 0.00 0.00 0.00 44 993.7
20200925201449 56 174 0.0 8.0 0.00 0.00 0.00 44 993.8
20200925200948 56 169 0.0 8.0 0.00 0.00 0.00 43 993.9
20200925200448 56 169 0.0 8.0 0.00 0.00 0.00 43 994.0
20200925195947 56 175 1.0 8.0 0.00 0.00 0.00 43 994.1
20200925195447 56 178 0.0 8.0 0.00 0.00 0.00 43 994.2
20200925194947 57 178 1.0 8.0 0.00 0.00 0.00 43 994.2
20200925194447 57 178 1.0 8.0 0.00 0.00 0.00 43 994.3
20200925193949 57 178 0.0 8.0 0.00 0.00 0.00 44 994.3
20200925193451 57 177 0.0 8.0 0.00 0.00 0.00 43 994.4
20200925192949 57 177 0.0 8.0 0.00 0.00 0.00 44 994.5
20200925192449 57 177 0.0 8.0 0.00 0.00 0.00 43 994.5
20200925191949 57 177 0.0 8.0 0.00 0.00 0.00 43 994.6
20200925191452 57 177 1.0 8.0 0.00 0.00 0.00 43 994.8
20200925190954 57 187 1.0 8.0 0.00 0.00 0.00 41 994.9
20200925190449 57 180 0.0 8.0 0.00 0.00 0.00 42 994.8
20200925185949 57 180 0.0 8.0 0.00 0.00 0.00 42 994.9
20200925185449 57 181 0.0 8.0 0.00 0.00 0.00 41 994.9
20200925184950 58 184 0.0 8.0 0.00 0.00 0.00 42 994.9
20200925184449 58 184 0.0 8.0 0.00 0.00 0.00 40 995.0
20200925183949 58 185 1.0 8.0 0.00 0.00 0.00 40 995.0
20200925183451 57 184 0.0 8.0 0.00 0.00 0.00 41 994.9
20200925182949 58 188 2.0 8.0 0.00 0.00 0.00 39 995.0
20200925182449 58 189 1.0 8.0 0.00 0.00 0.00 41 995.0
20200925181948 59 183 1.0 8.0 0.00 0.00 0.00 38 995.0
20200925181448 59 169 0.0 8.0 0.00 0.00 0.00 37 995.1
20200925180952 59 174 1.0 8.0 0.00 0.00 0.00 38 995.2
20200925180451 59 189 1.0 8.0 0.00 0.00 0.00 37 995.4
20200925175948 60 190 2.0 8.0 0.00 0.00 0.00 38 995.4
20200925175451 60 179 6.0 8.0 0.00 0.00 0.00 37 995.5
20200925174948 60 173 3.0 8.0 0.00 0.00 0.00 36 995.5
20200925174448 60 168 1.0 6.0 0.00 0.00 0.00 36 995.7
20200925173950 60 192 2.0 6.0 0.00 0.00 0.00 36 995.9
20200925173448 59 171 2.0 6.0 0.00 0.00 0.00 36 996.0
20200925172948 59 185 1.0 6.0 0.00 0.00 0.00 37 996.1
20200925172449 59 184 1.0 6.0 0.00 0.00 0.00 37 996.1
20200925171948 58 162 2.0 6.0 0.00 0.00 0.00 36 996.2
20200925171448 58 180 1.0 4.0 0.00 0.00 0.00 38 996.2
20200925170950 58 187 1.0 4.0 0.00 0.00 0.00 39 996.3
20200925170448 57 176 0.0 4.0 0.00 0.00 0.00 41 996.4
20200925165948 56 176 0.0 4.0 0.00 0.00 0.00 42 996.7
20200925165450 56 176 0.0 4.0 0.00 0.00 0.00 44 996.8
20200925164947 55 176 0.0 4.0 0.00 0.00 0.00 44 996.9
20200925164448 55 176 0.0 4.0 0.00 0.00 0.00 47 997.1
20200925163947 55 176 0.0 4.0 0.00 0.00 0.00 48 997.2
20200925163449 55 176 0.0 4.0 0.00 0.00 0.00 47 997.2
20200925162947 54 176 0.0 4.0 0.00 0.00 0.00 48 997.3
20200925162447 54 181 0.0 4.0 0.00 0.00 0.00 48 997.2
20200925161947 54 181 0.0 4.0 0.00 0.00 0.00 47 997.3
20200925161447 54 181 0.0 4.0 0.00 0.00 0.00 47 997.4
20200925160947 54 169 1.0 4.0 0.00 0.00 0.00 47 997.5
20200925160447 54 169 0.0 4.0 0.00 0.00 0.00 47 997.7
20200925155949 53 169 0.0 3.0 0.00 0.00 0.00 46 997.9
20200925155449 53 179 0.0 3.0 0.00 0.00 0.00 48 998.1
20200925154947 52 181 1.0 3.0 0.00 0.00 0.00 48 998.2
20200925154448 52 181 0.0 3.0 0.00 0.00 0.00 49 998.2
20200925153947 51 181 0.0 3.0 0.00 0.00 0.00 50 998.4
20200925153449 51 181 0.0 3.0 0.00 0.00 0.00 50 998.4
20200925152947 51 181 0.0 2.0 0.00 0.00 0.00 51 998.5
20200925152449 50 181 0.0 2.0 0.00 0.00 0.00 51 998.6
20200925151947 50 181 0.0 2.0 0.00 0.00 0.00 51 998.7
20200925151448 50 181 0.0 2.0 0.00 0.00 0.00 50 998.7
20200925150949 50 181 0.0 2.0 0.00 0.00 0.00 49 998.9
20200925150448 50 180 1.0 2.0 0.00 0.00 0.00 49 999.0
20200925145950 50 181 0.0 2.0 0.00 0.00 0.00 50 998.9
20200925145447 49 239 0.0 2.0 0.00 0.00 0.00 51 999.0
20200925144948 49 239 0.0 2.0 0.00 0.00 0.00 52 999.0
20200925144448 48 239 0.0 2.0 0.00 0.00 0.00 53 999.0
20200925143947 48 239 0.0 2.0 0.00 0.00 0.00 54 999.0
20200925143455 47 239 0.0 2.0 0.00 0.00 0.00 54 999.0
20200925142947 46 239 0.0 2.0 0.00 0.00 0.00 55 998.9
20200925142450 46 239 0.0 2.0 0.00 0.00 0.00 56 999.0
20200925141947 45 239 0.0 2.0 0.00 0.00 0.00 57 999.0
20200925141449 45 239 0.0 2.0 0.00 0.00 0.00 58 999.1
20200925140947 44 239 0.0 2.0 0.00 0.00 0.00 57 999.1
20200925140450 44 239 0.0 2.0 0.00 0.00 0.00 58 999.3
20200925135947 44 239 0.0 2.0 0.00 0.00 0.00 59 999.3
20200925135448 43 239 0.0 2.0 0.00 0.00 0.00 59 999.3
20200925134949 43 239 0.0 2.0 0.00 0.00 0.00 60 999.3
20200925134447 43 239 0.0 2.0 0.00 0.00 0.00 60 999.5
20200925133947 44 239 0.0 2.0 0.00 0.00 0.00 59 999.4
20200925133447 44 239 0.0 2.0 0.00 0.00 0.00 60 999.5
20200925132947 44 239 0.0 2.0 0.00 0.00 0.00 59 999.7
20200925132450 44 239 0.0 2.0 0.00 0.00 0.00 59 999.7
20200925131951 43 239 0.0 2.0 0.00 0.00 0.00 60 999.7
20200925131447 43 239 0.0 2.0 0.00 0.00 0.00 61 999.7
20200925130947 43 239 0.0 2.0 0.00 0.00 0.00 61 999.6
20200925130449 42 239 0.0 2.0 0.00 0.00 0.00 61 999.8
20200925125949 42 239 0.0 2.0 0.00 0.00 0.00 61 1000.0
20200925125451 43 239 0.0 2.0 0.00 0.00 0.00 61 1000.0
20200925124950 43 239 0.0 2.0 0.00 0.00 0.00 60 999.9
20200925124449 43 239 0.0 2.0 0.00 0.00 0.00 61 999.8
20200925123951 43 239 0.0 2.0 0.00 0.00 0.00 61 999.7
20200925123449 43 239 0.0 2.0 0.00 0.00 0.00 60 999.8
20200925122949 43 239 0.0 2.0 0.00 0.00 0.00 60 1000.0
20200925122450 44 239 0.0 2.0 0.00 0.00 0.00 59 1000.0
20200925121949 44 239 0.0 2.0 0.00 0.00 0.00 60 1000.0
20200925121449 44 239 0.0 2.0 0.00 0.00 0.00 59 999.9
20200925120949 44 239 0.0 2.0 0.00 0.00 0.00 59 1000.0
20200925120447 44 239 0.0 2.0 0.00 0.00 0.00 58 1000.0
20200925115948 44 239 0.0 2.0 0.00 0.00 0.00 59 1000.0
20200925115449 45 239 0.0 2.0 0.00 0.00 0.00 58 1000.0
20200925114948 45 239 0.0 2.0 0.00 0.00 0.00 57 999.9
20200925114447 45 239 0.0 2.0 0.00 0.00 0.00 57 1000.0
20200925113947 45 239 0.0 2.0 0.00 0.00 0.00 58 1000.0
20200925113447 45 239 0.0 2.0 0.00 0.00 0.00 57 1000.0
20200925112947 45 239 0.0 2.0 0.00 0.00 0.00 56 1000.0
20200925112447 46 239 0.0 2.0 0.00 0.00 0.00 57 1000.1
20200925111947 46 239 0.0 2.0 0.00 0.00 0.00 57 1000.1
20200925111447 46 239 0.0 2.0 0.00 0.00 0.00 56 1000.1
20200925110947 46 239 0.0 2.0 0.00 0.00 0.00 55 1000.2
20200925110447 46 239 0.0 2.0 0.00 0.00 0.00 55 1000.2
20200925105950 46 239 0.0 2.0 0.00 0.00 0.00 54 1000.2
20200925105448 45 239 0.0 2.0 0.00 0.00 0.00 55 1000.2
20200925104947 45 239 0.0 2.0 0.00 0.00 0.00 57 1000.3
20200925104448 44 239 0.0 2.0 0.00 0.00 0.00 57 1000.2
20200925103952 44 239 0.0 2.0 0.00 0.00 0.00 58 1000.2
20200925103449 44 239 0.0 2.0 0.00 0.00 0.00 58 1000.2
20200925102949 44 239 0.0 2.0 0.00 0.00 0.00 59 1000.3
20200925102450 44 239 0.0 2.0 0.00 0.00 0.00 58 1000.3
20200925101949 45 239 0.0 2.0 0.00 0.00 0.00 57 1000.3
20200925101449 45 239 0.0 2.0 0.00 0.00 0.00 56 1000.3
20200925100955 45 239 0.0 2.0 0.00 0.00 0.00 55 1000.2
20200925100453 45 239 0.0 2.0 0.00 0.00 0.00 56 1000.3
20200925095950 45 239 0.0 2.0 0.00 0.00 0.00 54 1000.3
20200925095449 45 239 0.0 2.0 0.00 0.00 0.00 54 1000.2
20200925094949 45 239 0.0 2.0 0.00 0.00 0.00 54 1000.2
20200925094450 46 239 0.0 2.0 0.00 0.00 0.00 55 1000.2
20200925093950 46 239 0.0 2.0 0.00 0.00 0.00 54 1000.1
20200925093449 45 239 0.0 2.0 0.00 0.00 0.00 53 1000.0
20200925092948 46 239 0.0 2.0 0.00 0.00 0.00 55 1000.0
20200925092451 46 239 0.0 2.0 0.00 0.00 0.00 56 999.8
20200925091948 46 239 0.0 2.0 0.00 0.00 0.00 56 999.8
20200925091448 46 239 0.0 2.0 0.00 0.00 0.00 55 999.8
20200925090948 46 239 0.0 2.0 0.00 0.00 0.00 56 999.8
20200925090452 46 239 0.0 2.0 0.00 0.00 0.00 55 999.8
20200925085951 46 239 0.0 2.0 0.00 0.00 0.00 56 999.7
20200925085449 47 239 0.0 2.0 0.00 0.00 0.00 55 999.7
20200925084948 47 239 0.0 2.0 0.00 0.00 0.00 56 999.6
20200925084448 47 239 0.0 2.0 0.00 0.00 0.00 55 999.6
20200925083948 47 239 0.0 2.0 0.00 0.00 0.00 55 999.4
20200925083451 47 239 0.0 2.0 0.00 0.00 0.00 54 999.4
20200925082948 47 239 0.0 2.0 0.00 0.00 0.00 54 999.4
20200925082448 48 239 0.0 2.0 0.00 0.00 0.00 53 999.4
20200925081947 48 239 0.0 2.0 0.00 0.00 0.00 52 999.4
20200925081447 48 239 0.0 2.0 0.00 0.00 0.00 52 999.4
20200925080947 48 239 0.0 2.0 0.00 0.00 0.00 52 999.4
20200925080447 49 239 0.0 2.0 0.00 0.00 0.00 51 999.4
20200925075948 49 239 0.0 2.0 0.00 0.00 0.00 51 999.4
20200925075447 49 239 0.0 2.0 0.00 0.00 0.00 51 999.2
20200925075009 49 239 0.0 2.0 0.00 0.00 0.00 50 999.2
20200925074447 49 239 0.0 2.0 0.00 0.00 0.00 50 999.3
20200925073947 50 239 0.0 2.0 0.00 0.00 0.00 49 999.4
20200925073451 49 239 0.0 2.0 0.00 0.00 0.00 48 999.4
20200925072947 49 239 0.0 2.0 0.00 0.00 0.00 48 999.4
20200925072451 49 144 0.0 1.0 0.00 0.00 0.00 49 999.4
20200925071948 48 143 0.0 1.0 0.00 0.00 0.00 49 999.4
20200925071447 48 143 0.0 1.0 0.00 0.00 0.00 51 999.4
20200925070948 47 143 0.0 1.0 0.00 0.00 0.00 52 999.5
20200925070447 47 142 0.0 1.0 0.00 0.00 0.00 54 999.5
20200925065955 47 142 0.0 1.0 0.00 0.00 0.00 53 999.6
20200925065447 47 142 0.0 1.0 0.00 0.00 0.00 54 999.5
20200925064948 47 142 0.0 1.0 0.00 0.00 0.00 54 999.5
20200925064447 48 142 0.0 1.0 0.00 0.00 0.00 54 999.5
20200925063950 48 142 0.0 1.0 0.00 0.00 0.00 52 999.4
20200925063447 48 142 0.0 1.0 0.00 0.00 0.00 54 999.4
20200925062948 48 142 0.0 1.0 0.00 0.00 0.00 53 999.3
20200925062449 48 142 0.0 1.0 0.00 0.00 0.00 53 999.2
20200925061947 49 142 0.0 1.0 0.00 0.00 0.00 52 999.2
20200925061447 49 142 0.0 1.0 0.00 0.00 0.00 52 999.3
20200925060947 49 142 0.0 1.0 0.00 0.00 0.00 52 999.2
20200925060449 49 142 0.0 1.0 0.00 0.00 0.00 52 999.1
20200925055948 48 142 0.0 12.0 0.00 0.00 0.00 52 999.0
20200925055448 48 142 0.0 12.0 0.00 0.00 0.00 54 998.8
20200925054950 47 142 0.0 12.0 0.00 0.00 0.00 55 998.8
20200925054448 47 142 0.0 12.0 0.00 0.00 0.00 56 998.7
20200925053947 47 142 0.0 12.0 0.00 0.00 0.00 56 998.8
20200925053447 47 142 0.0 12.0 0.00 0.00 0.00 56 998.7
20200925052947 47 142 0.0 12.0 0.00 0.00 0.00 55 998.7
20200925052447 47 142 0.0 12.0 0.00 0.00 0.00 55 998.7
20200925051948 47 142 0.0 12.0 0.00 0.00 0.00 55 998.7
20200925051450 47 142 0.0 12.0 0.00 0.00 0.00 54 998.7
20200925050947 48 142 0.0 12.0 0.00 0.00 0.00 54 998.8
20200925050449 48 142 0.0 12.0 0.00 0.00 0.00 54 998.7
20200925045947 48 142 0.0 12.0 0.00 0.00 0.00 54 998.7
20200925045449 48 142 0.0 12.0 0.00 0.00 0.00 54 998.7
20200925044947 48 142 0.0 12.0 0.00 0.00 0.00 54 998.7
20200925044448 48 142 0.0 12.0 0.00 0.00 0.00 53 998.7
20200925043947 49 142 0.0 12.0 0.00 0.00 0.00 53 998.8
20200925043447 49 142 0.0 12.0 0.00 0.00 0.00 52 998.7
20200925042948 49 142 0.0 12.0 0.00 0.00 0.00 52 998.6
20200925042447 49 142 0.0 12.0 0.00 0.00 0.00 52 998.7
20200925041949 50 142 0.0 12.0 0.00 0.00 0.00 52 998.9
20200925041449 50 142 0.0 12.0 0.00 0.00 0.00 51 998.8
20200925040947 50 142 0.0 12.0 0.00 0.00 0.00 50 998.8
20200925040451 50 142 0.0 12.0 0.00 0.00 0.00 50 998.6
20200925035951 50 142 0.0 12.0 0.00 0.00 0.00 50 998.7
20200925035450 51 142 0.0 12.0 0.00 0.00 0.00 50 998.6
20200925034952 51 142 0.0 12.0 0.00 0.00 0.00 50 998.6
20200925034449 51 142 0.0 12.0 0.00 0.00 0.00 50 998.6
20200925033950 51 61 0.0 12.0 0.00 0.00 0.00 50 998.6
20200925033448 51 61 0.0 12.0 0.00 0.00 0.00 50 998.5
20200925032947 51 60 0.0 12.0 0.00 0.00 0.00 50 998.4
20200925032447 51 61 0.0 12.0 0.00 0.00 0.00 47 998.3
20200925031947 52 61 0.0 12.0 0.00 0.00 0.00 48 998.2
20200925031450 52 60 0.0 12.0 0.00 0.00 0.00 46 998.1
20200925030947 52 60 0.0 12.0 0.00 0.00 0.00 46 998.1
20200925030447 52 60 0.0 12.0 0.00 0.00 0.00 46 998.0
20200925025948 53 60 0.0 12.0 0.00 0.00 0.00 46 998.0
20200925025447 53 60 0.0 12.0 0.00 0.00 0.00 45 997.9
20200925024948 53 60 0.0 12.0 0.00 0.00 0.00 45 997.8
20200925024447 54 61 0.0 12.0 0.00 0.00 0.00 44 997.8
20200925023948 54 60 0.0 12.0 0.00 0.00 0.00 43 997.8
20200925023448 54 60 0.0 12.0 0.00 0.00 0.00 43 997.7
20200925022947 55 60 0.0 12.0 0.00 0.00 0.00 43 997.7
20200925022447 55 61 1.0 12.0 0.00 0.00 0.00 43 997.7